Year,Month,Day,Hour,Minute,Value (Times are PST for temperature in C)
2016,06,25,00,00,15.60
2016,06,25,00,01,15.60
2016,06,25,00,02,15.50
2016,06,25,00,03,15.50
2016,06,25,00,05,15.50
2016,06,25,00,06,15.50
2016,06,25,00,07,15.50
2016,06,25,00,08,15.50
2016,06,25,00,09,15.50
2016,06,25,00,10,15.50
2016,06,25,00,11,15.50
2016,06,25,00,12,15.50
2016,06,25,00,13,15.50
2016,06,25,00,14,15.50
2016,06,25,00,15,15.50
2016,06,25,00,16,15.50
2016,06,25,00,17,15.50
2016,06,25,00,18,15.50
2016,06,25,00,19,15.50
2016,06,25,00,20,15.50
2016,06,25,00,21,15.50
2016,06,25,00,22,15.40
2016,06,25,00,23,15.40
2016,06,25,00,24,15.40
2016,06,25,00,25,15.40
2016,06,25,00,26,15.40
2016,06,25,00,27,15.40
2016,06,25,00,28,15.40
2016,06,25,00,29,15.40
2016,06,25,00,30,15.30
2016,06,25,00,31,15.30
2016,06,25,00,32,15.30
2016,06,25,00,33,15.30
2016,06,25,00,34,15.30
2016,06,25,00,35,15.30
2016,06,25,00,36,15.30
2016,06,25,00,37,15.30
2016,06,25,00,38,15.30
2016,06,25,00,39,15.30
2016,06,25,00,40,15.30
2016,06,25,00,41,15.40
2016,06,25,00,42,15.40
2016,06,25,00,43,15.40
2016,06,25,00,44,15.40
2016,06,25,00,45,15.40
2016,06,25,00,46,15.40
2016,06,25,00,47,15.40
2016,06,25,00,48,15.40
2016,06,25,00,49,15.40
2016,06,25,00,50,15.40
2016,06,25,00,51,15.40
2016,06,25,00,52,15.40
2016,06,25,00,53,15.40
2016,06,25,00,54,15.40
2016,06,25,00,55,15.40
2016,06,25,00,56,15.40
2016,06,25,00,57,15.50
2016,06,25,00,58,15.50
2016,06,25,00,59,15.50
2016,06,25,01,00,15.50
2016,06,25,01,01,15.40
2016,06,25,01,02,15.50
2016,06,25,01,03,15.40
2016,06,25,01,04,15.40
2016,06,25,01,05,15.40
2016,06,25,01,06,15.50
2016,06,25,01,07,15.40
2016,06,25,01,08,15.50
2016,06,25,01,10,15.40
2016,06,25,01,11,15.50
2016,06,25,01,12,15.50
2016,06,25,01,13,15.50
2016,06,25,01,15,15.50
2016,06,25,01,16,15.50
2016,06,25,01,17,15.50
2016,06,25,01,18,15.50
2016,06,25,01,19,15.50
2016,06,25,01,20,15.50
2016,06,25,01,21,15.50
2016,06,25,01,22,15.50
2016,06,25,01,23,15.50
2016,06,25,01,24,15.50
2016,06,25,01,25,15.50
2016,06,25,01,26,15.50
2016,06,25,01,27,15.50
2016,06,25,01,28,15.50
2016,06,25,01,29,15.50
2016,06,25,01,30,15.50
2016,06,25,01,31,15.50
2016,06,25,01,32,15.50
2016,06,25,01,33,15.50
2016,06,25,01,34,15.50
2016,06,25,01,35,15.40
2016,06,25,01,36,15.40
2016,06,25,01,37,15.40
2016,06,25,01,38,15.40
2016,06,25,01,39,15.40
2016,06,25,01,40,15.40
2016,06,25,01,41,15.30
2016,06,25,01,42,15.30
2016,06,25,01,43,15.30
2016,06,25,01,44,15.30
2016,06,25,01,45,15.30
2016,06,25,01,46,15.30
2016,06,25,01,47,15.30
2016,06,25,01,48,15.30
2016,06,25,01,49,15.30
2016,06,25,01,50,15.30
2016,06,25,01,51,15.30
2016,06,25,01,52,15.30
2016,06,25,01,53,15.20
2016,06,25,01,54,15.20
2016,06,25,01,55,15.20
2016,06,25,01,56,15.20
2016,06,25,01,57,15.20
2016,06,25,01,58,15.20
2016,06,25,01,59,15.20
2016,06,25,02,00,15.20
2016,06,25,02,01,15.20
2016,06,25,02,02,15.20
2016,06,25,02,03,15.20
2016,06,25,02,04,15.20
2016,06,25,02,05,15.20
2016,06,25,02,06,15.20
2016,06,25,02,07,15.20
2016,06,25,02,08,15.20
2016,06,25,02,09,15.20
2016,06,25,02,10,15.20
2016,06,25,02,11,15.20
2016,06,25,02,12,15.20
2016,06,25,02,13,15.20
2016,06,25,02,14,15.20
2016,06,25,02,15,15.20
2016,06,25,02,16,15.20
2016,06,25,02,17,15.20
2016,06,25,02,18,15.20
2016,06,25,02,19,15.20
2016,06,25,02,20,15.20
2016,06,25,02,21,15.20
2016,06,25,02,22,15.20
2016,06,25,02,23,15.20
2016,06,25,02,24,15.20
2016,06,25,02,25,15.20
2016,06,25,02,26,15.20
2016,06,25,02,27,15.20
2016,06,25,02,28,15.20
2016,06,25,02,29,15.20
2016,06,25,02,30,15.20
2016,06,25,02,31,15.10
2016,06,25,02,32,15.10
2016,06,25,02,33,15.10
2016,06,25,02,34,15.10
2016,06,25,02,35,15.10
2016,06,25,02,36,15.10
2016,06,25,02,37,15.10
2016,06,25,02,38,15.10
2016,06,25,02,39,15.10
2016,06,25,02,40,15.10
2016,06,25,02,41,15.10
2016,06,25,02,42,15.10
2016,06,25,02,43,15.10
2016,06,25,02,44,15.10
2016,06,25,02,45,15.10
2016,06,25,02,46,15.10
2016,06,25,02,47,15.10
2016,06,25,02,48,15.10
2016,06,25,02,49,15.10
2016,06,25,02,50,15.10
2016,06,25,02,51,15.10
2016,06,25,02,52,15.10
2016,06,25,02,53,15.10
2016,06,25,02,54,15.10
2016,06,25,02,55,15.10
2016,06,25,02,56,15.10
2016,06,25,02,57,15.10
2016,06,25,02,58,15.10
2016,06,25,02,59,15.10
2016,06,25,03,00,15.10
2016,06,25,03,01,15.10
2016,06,25,03,02,15.10
2016,06,25,03,03,15.10
2016,06,25,03,04,15.10
2016,06,25,03,05,15.10
2016,06,25,03,06,15.10
2016,06,25,03,07,15.10
2016,06,25,03,08,15.10
2016,06,25,03,09,15.10
2016,06,25,03,10,15.10
2016,06,25,03,11,15.10
2016,06,25,03,12,15.10
2016,06,25,03,13,15.10
2016,06,25,03,14,15.10
2016,06,25,03,15,15.10
2016,06,25,03,16,15.10
2016,06,25,03,17,15.10
2016,06,25,03,18,15.10
2016,06,25,03,19,15.10
2016,06,25,03,20,15.10
2016,06,25,03,21,15.10
2016,06,25,03,22,15.10
2016,06,25,03,23,15.10
2016,06,25,03,24,15.10
2016,06,25,03,25,15.10
2016,06,25,03,26,15.10
2016,06,25,03,27,15.10
2016,06,25,03,28,15.10
2016,06,25,03,29,15.10
2016,06,25,03,30,15.00
2016,06,25,03,31,15.00
2016,06,25,03,32,15.00
2016,06,25,03,33,15.00
2016,06,25,03,34,15.00
2016,06,25,03,35,15.00
2016,06,25,03,36,15.00
2016,06,25,03,37,15.00
2016,06,25,03,38,15.00
2016,06,25,03,39,15.00
2016,06,25,03,40,15.00
2016,06,25,03,41,15.00
2016,06,25,03,42,15.00
2016,06,25,03,43,14.90
2016,06,25,03,44,14.90
2016,06,25,03,45,14.90
2016,06,25,03,46,14.90
2016,06,25,03,47,14.90
2016,06,25,03,48,14.90
2016,06,25,03,49,14.90
2016,06,25,03,50,14.90
2016,06,25,03,51,14.90
2016,06,25,03,52,14.90
2016,06,25,03,53,14.90
2016,06,25,03,54,14.90
2016,06,25,03,55,14.90
2016,06,25,03,57,14.90
2016,06,25,03,58,14.90
2016,06,25,03,59,14.90
2016,06,25,04,00,14.90
2016,06,25,04,01,14.90
2016,06,25,04,02,14.80
2016,06,25,04,03,14.80
2016,06,25,04,05,14.80
2016,06,25,04,06,14.80
2016,06,25,04,07,14.80
2016,06,25,04,08,14.80
2016,06,25,04,09,14.80
2016,06,25,04,10,14.80
2016,06,25,04,12,14.80
2016,06,25,04,13,14.80
2016,06,25,04,14,14.80
2016,06,25,04,15,14.80
2016,06,25,04,16,14.80
2016,06,25,04,17,14.80
2016,06,25,04,19,14.80
2016,06,25,04,20,14.80
2016,06,25,04,21,14.90
2016,06,25,04,22,14.90
2016,06,25,04,24,14.90
2016,06,25,04,25,14.90
2016,06,25,04,26,14.90
2016,06,25,04,27,14.90
2016,06,25,04,28,14.90
2016,06,25,04,29,14.90
2016,06,25,04,31,14.90
2016,06,25,04,33,14.90
2016,06,25,04,34,14.90
2016,06,25,04,35,14.90
2016,06,25,04,36,14.90
2016,06,25,04,38,14.90
2016,06,25,04,39,14.90
2016,06,25,04,40,14.80
2016,06,25,04,41,14.80
2016,06,25,04,43,14.80
2016,06,25,04,44,14.80
2016,06,25,04,45,14.80
2016,06,25,04,46,14.80
2016,06,25,04,48,14.80
2016,06,25,04,49,14.80
2016,06,25,04,50,14.80
2016,06,25,04,51,14.80
2016,06,25,04,53,14.70
2016,06,25,04,54,14.70
2016,06,25,04,55,14.70
2016,06,25,04,56,14.70
2016,06,25,04,58,14.70
2016,06,25,05,00,14.70
2016,06,25,05,01,14.70
2016,06,25,05,02,14.70
2016,06,25,05,03,14.70
2016,06,25,05,05,14.70
2016,06,25,05,06,14.70
2016,06,25,05,07,14.70
2016,06,25,05,08,14.70
2016,06,25,05,10,14.70
2016,06,25,05,11,14.70
2016,06,25,05,12,14.70
2016,06,25,05,13,14.70
2016,06,25,05,15,14.70
2016,06,25,05,16,14.70
2016,06,25,05,17,14.70
2016,06,25,05,18,14.70
2016,06,25,05,20,14.70
2016,06,25,05,21,14.70
2016,06,25,05,22,14.70
2016,06,25,05,23,14.70
2016,06,25,05,24,14.70
2016,06,25,05,25,14.70
2016,06,25,05,27,14.70
2016,06,25,05,28,14.70
2016,06,25,05,29,14.70
2016,06,25,05,30,14.70
2016,06,25,05,31,14.70
2016,06,25,05,32,14.70
2016,06,25,05,34,14.70
2016,06,25,05,35,14.70
2016,06,25,05,36,14.70
2016,06,25,05,37,14.70
2016,06,25,05,39,14.70
2016,06,25,05,40,14.70
2016,06,25,05,41,14.70
2016,06,25,05,42,14.70
2016,06,25,05,43,14.70
2016,06,25,05,44,14.70
2016,06,25,05,46,14.70
2016,06,25,05,47,14.70
2016,06,25,05,48,14.70
2016,06,25,05,49,14.70
2016,06,25,05,51,14.70
2016,06,25,05,52,14.60
2016,06,25,05,53,14.60
2016,06,25,05,54,14.60
2016,06,25,05,55,14.60
2016,06,25,05,56,14.60
2016,06,25,05,58,14.60
2016,06,25,05,59,14.60
2016,06,25,06,00,14.60
2016,06,25,06,01,14.60
2016,06,25,06,03,14.60
2016,06,25,06,04,14.60
2016,06,25,06,05,14.60
2016,06,25,06,06,14.60
2016,06,25,06,08,14.70
2016,06,25,06,09,14.70
2016,06,25,06,10,14.70
2016,06,25,06,11,14.70
2016,06,25,06,12,14.70
2016,06,25,06,13,14.70
2016,06,25,06,14,14.70
2016,06,25,06,15,14.70
2016,06,25,06,16,14.70
2016,06,25,06,17,14.70
2016,06,25,06,18,14.70
2016,06,25,06,20,14.70
2016,06,25,06,21,14.70
2016,06,25,06,22,14.70
2016,06,25,06,23,14.70
2016,06,25,06,25,14.70
2016,06,25,06,26,14.70
2016,06,25,06,27,14.70
2016,06,25,06,28,14.80
2016,06,25,06,30,14.80
2016,06,25,06,31,14.80
2016,06,25,06,32,14.80
2016,06,25,06,33,14.80
2016,06,25,06,35,14.90
2016,06,25,06,36,14.90
2016,06,25,06,37,14.90
2016,06,25,06,38,14.90
2016,06,25,06,39,14.90
2016,06,25,06,40,14.90
2016,06,25,06,42,15.00
2016,06,25,06,43,15.00
2016,06,25,06,44,15.00
2016,06,25,06,45,15.00
2016,06,25,06,46,15.00
2016,06,25,06,47,15.10
2016,06,25,06,49,15.10
2016,06,25,06,50,15.10
2016,06,25,06,51,15.10
2016,06,25,06,52,15.10
2016,06,25,06,54,15.20
2016,06,25,06,55,15.20
2016,06,25,06,56,15.20
2016,06,25,06,57,15.20
2016,06,25,06,58,15.20
2016,06,25,06,59,15.20
2016,06,25,07,00,15.20
2016,06,25,07,01,15.20
2016,06,25,07,03,15.20
2016,06,25,07,04,15.20
2016,06,25,07,05,15.20
2016,06,25,07,06,15.30
2016,06,25,07,08,15.30
2016,06,25,07,09,15.30
2016,06,25,07,10,15.30
2016,06,25,07,11,15.40
2016,06,25,07,13,15.40
2016,06,25,07,14,15.40
2016,06,25,07,15,15.40
2016,06,25,07,16,15.40
2016,06,25,07,17,15.40
2016,06,25,07,18,15.40
2016,06,25,07,20,15.50
2016,06,25,07,21,15.50
2016,06,25,07,22,15.50
2016,06,25,07,23,15.50
2016,06,25,07,24,15.50
2016,06,25,07,25,15.50
2016,06,25,07,26,15.50
2016,06,25,07,27,15.50
2016,06,25,07,28,15.50
2016,06,25,07,29,15.50
2016,06,25,07,30,15.50
2016,06,25,07,31,15.50
2016,06,25,07,32,15.50
2016,06,25,07,33,15.50
2016,06,25,07,34,15.50
2016,06,25,07,35,15.50
2016,06,25,07,36,15.50
2016,06,25,07,37,15.40
2016,06,25,07,38,15.40
2016,06,25,07,39,15.40
2016,06,25,07,40,15.40
2016,06,25,07,41,15.40
2016,06,25,07,42,15.50
2016,06,25,07,43,15.50
2016,06,25,07,44,15.50
2016,06,25,07,45,15.50
2016,06,25,07,47,15.40
2016,06,25,07,48,15.40
2016,06,25,07,49,15.40
2016,06,25,07,50,15.40
2016,06,25,07,51,15.30
2016,06,25,07,52,15.30
2016,06,25,07,53,15.30
2016,06,25,07,54,15.30
2016,06,25,07,55,15.30
2016,06,25,07,56,15.30
2016,06,25,07,57,15.20
2016,06,25,07,59,15.20
2016,06,25,08,00,15.20
2016,06,25,08,01,15.20
2016,06,25,08,02,15.20
2016,06,25,08,03,15.20
2016,06,25,08,04,15.20
2016,06,25,08,05,15.20
2016,06,25,08,06,15.20
2016,06,25,08,07,15.20
2016,06,25,08,08,15.20
2016,06,25,08,09,15.20
2016,06,25,08,10,15.20
2016,06,25,08,11,15.20
2016,06,25,08,12,15.20
2016,06,25,08,13,15.20
2016,06,25,08,14,15.20
2016,06,25,08,15,15.20
2016,06,25,08,16,15.20
2016,06,25,08,17,15.20
2016,06,25,08,18,15.20
2016,06,25,08,19,15.20
2016,06,25,08,20,15.20
2016,06,25,08,21,15.10
2016,06,25,08,22,15.10
2016,06,25,08,23,15.10
2016,06,25,08,24,15.10
2016,06,25,08,25,15.10
2016,06,25,08,26,15.10
2016,06,25,08,27,15.10
2016,06,25,08,28,15.10
2016,06,25,08,29,15.10
2016,06,25,08,30,15.10
2016,06,25,08,31,15.10
2016,06,25,08,32,15.10
2016,06,25,08,33,15.10
2016,06,25,08,34,15.10
2016,06,25,08,35,15.00
2016,06,25,08,36,15.00
2016,06,25,08,37,15.00
2016,06,25,08,38,15.00
2016,06,25,08,39,15.00
2016,06,25,08,40,15.00
2016,06,25,08,41,15.00
2016,06,25,08,42,15.00
2016,06,25,08,43,15.00
2016,06,25,08,44,15.00
2016,06,25,08,45,15.00
2016,06,25,08,46,15.00
2016,06,25,08,47,15.10
2016,06,25,08,48,15.10
2016,06,25,08,49,15.10
2016,06,25,08,50,15.10
2016,06,25,08,51,15.10
2016,06,25,08,52,15.10
2016,06,25,08,53,15.10
2016,06,25,08,54,15.10
2016,06,25,08,55,15.10
2016,06,25,08,56,15.10
2016,06,25,08,57,15.10
2016,06,25,08,58,15.10
2016,06,25,08,59,15.20
2016,06,25,09,00,15.20
2016,06,25,09,01,15.20
2016,06,25,09,02,15.20
2016,06,25,09,03,15.20
2016,06,25,09,04,15.20
2016,06,25,09,05,15.20
2016,06,25,09,06,15.20
2016,06,25,09,07,15.30
2016,06,25,09,08,15.30
2016,06,25,09,09,15.40
2016,06,25,09,10,15.50
2016,06,25,09,11,15.50
2016,06,25,09,12,15.50
2016,06,25,09,13,15.50
2016,06,25,09,14,15.60
2016,06,25,09,15,15.60
2016,06,25,09,16,15.70
2016,06,25,09,17,15.70
2016,06,25,09,18,15.70
2016,06,25,09,19,15.70
2016,06,25,09,20,15.70
2016,06,25,09,21,15.70
2016,06,25,09,22,15.70
2016,06,25,09,23,15.70
2016,06,25,09,24,15.70
2016,06,25,09,25,15.80
2016,06,25,09,26,15.80
2016,06,25,09,27,15.80
2016,06,25,09,28,15.80
2016,06,25,09,29,15.90
2016,06,25,09,30,15.90
2016,06,25,09,31,15.90
2016,06,25,09,32,15.90
2016,06,25,09,33,15.90
2016,06,25,09,34,15.90
2016,06,25,09,35,16.00
2016,06,25,09,36,16.00
2016,06,25,09,37,16.00
2016,06,25,09,38,16.00
2016,06,25,09,39,16.00
2016,06,25,09,40,16.10
2016,06,25,09,41,16.10
2016,06,25,09,42,16.20
2016,06,25,09,43,16.20
2016,06,25,09,44,16.20
2016,06,25,09,45,16.30
2016,06,25,09,46,16.30
2016,06,25,09,47,16.30
2016,06,25,09,48,16.30
2016,06,25,09,49,16.30
2016,06,25,09,50,16.40
2016,06,25,09,51,16.40
2016,06,25,09,52,16.50
2016,06,25,09,53,16.50
2016,06,25,09,54,16.50
2016,06,25,09,55,16.50
2016,06,25,09,56,16.50
2016,06,25,09,57,16.60
2016,06,25,09,58,16.60
2016,06,25,09,59,16.60
2016,06,25,10,00,16.70
2016,06,25,10,01,16.70
2016,06,25,10,02,16.80
2016,06,25,10,03,16.80
2016,06,25,10,04,16.90
2016,06,25,10,05,16.90
2016,06,25,10,06,16.90
2016,06,25,10,07,16.90
2016,06,25,10,08,16.90
2016,06,25,10,09,16.90
2016,06,25,10,10,17.10
2016,06,25,10,11,17.10
2016,06,25,10,12,17.10
2016,06,25,10,13,17.10
2016,06,25,10,15,17.10
2016,06,25,10,16,17.20
2016,06,25,10,17,17.20
2016,06,25,10,18,17.20
2016,06,25,10,20,17.20
2016,06,25,10,22,17.30
2016,06,25,10,23,17.40
2016,06,25,10,25,17.50
2016,06,25,10,27,17.50
2016,06,25,10,28,17.60
2016,06,25,10,30,17.70
2016,06,25,10,32,17.80
2016,06,25,10,33,17.80
2016,06,25,10,34,17.80
2016,06,25,10,35,17.80
2016,06,25,10,37,17.80
2016,06,25,10,38,17.80
2016,06,25,10,39,17.80
2016,06,25,10,40,17.80
2016,06,25,10,41,17.80
2016,06,25,10,42,17.80
2016,06,25,10,44,17.80
2016,06,25,10,45,17.80
2016,06,25,10,46,17.80
2016,06,25,10,47,17.80
2016,06,25,10,48,17.80
2016,06,25,10,49,17.80
2016,06,25,10,51,17.80
2016,06,25,10,52,17.80
2016,06,25,10,53,17.80
2016,06,25,10,54,17.80
2016,06,25,10,56,17.80
2016,06,25,10,57,17.80
2016,06,25,10,58,17.80
2016,06,25,10,59,17.80
2016,06,25,11,00,17.80
2016,06,25,11,01,17.80
2016,06,25,11,03,17.80
2016,06,25,11,04,17.80
2016,06,25,11,05,17.80
2016,06,25,11,06,17.80
2016,06,25,11,08,17.80
2016,06,25,11,09,17.80
2016,06,25,11,10,17.80
2016,06,25,11,11,17.80
2016,06,25,11,13,17.80
2016,06,25,11,14,17.80
2016,06,25,11,15,17.70
2016,06,25,11,16,17.70
2016,06,25,11,18,17.70
2016,06,25,11,19,17.70
2016,06,25,11,20,17.70
2016,06,25,11,21,17.60
2016,06,25,11,22,17.60
2016,06,25,11,23,17.50
2016,06,25,11,25,17.30
2016,06,25,11,26,17.20
2016,06,25,11,27,17.10
2016,06,25,11,28,17.10
2016,06,25,11,30,16.90
2016,06,25,11,31,16.90
2016,06,25,11,32,16.90
2016,06,25,11,33,16.80
2016,06,25,11,35,16.70
2016,06,25,11,37,16.60
2016,06,25,11,38,16.60
2016,06,25,11,39,16.60
2016,06,25,11,40,16.60
2016,06,25,11,42,16.60
2016,06,25,11,43,16.60
2016,06,25,11,44,16.60
2016,06,25,11,45,16.60
2016,06,25,11,47,16.60
2016,06,25,11,48,16.60
2016,06,25,11,49,16.60
2016,06,25,11,50,16.60
2016,06,25,11,52,16.60
2016,06,25,11,53,16.60
2016,06,25,11,54,16.70
2016,06,25,11,55,16.70
2016,06,25,11,57,16.80
2016,06,25,11,58,16.80
2016,06,25,11,59,16.90
2016,06,25,12,00,16.90
2016,06,25,12,02,16.90
2016,06,25,12,03,16.90
2016,06,25,12,04,16.90
2016,06,25,12,05,16.90
2016,06,25,12,06,16.90
2016,06,25,12,07,16.90
2016,06,25,12,09,17.10
2016,06,25,12,10,17.10
2016,06,25,12,11,17.10
2016,06,25,12,12,17.10
2016,06,25,12,13,17.20
2016,06,25,12,14,17.20
2016,06,25,12,16,17.30
2016,06,25,12,17,17.40
2016,06,25,12,18,17.40
2016,06,25,12,19,17.50
2016,06,25,12,21,17.60
2016,06,25,12,22,17.60
2016,06,25,12,23,17.70
2016,06,25,12,24,17.70
2016,06,25,12,25,17.70
2016,06,25,12,26,17.80
2016,06,25,12,28,17.80
2016,06,25,12,29,17.80
2016,06,25,12,30,17.80
2016,06,25,12,31,17.80
2016,06,25,12,33,17.90
2016,06,25,12,34,18.00
2016,06,25,12,35,18.10
2016,06,25,12,36,18.20
2016,06,25,12,37,18.30
2016,06,25,12,38,18.40
2016,06,25,12,40,18.60
2016,06,25,12,41,18.70
2016,06,25,12,42,18.70
2016,06,25,12,43,18.70
2016,06,25,12,44,18.70
2016,06,25,12,45,18.70
2016,06,25,12,46,18.80
2016,06,25,12,47,18.90
2016,06,25,12,48,18.90
2016,06,25,12,49,19.00
2016,06,25,12,50,19.00
2016,06,25,12,51,19.00
2016,06,25,12,52,19.00
2016,06,25,12,53,19.00
2016,06,25,12,54,19.10
2016,06,25,12,55,19.10
2016,06,25,12,57,19.30
2016,06,25,12,58,19.40
2016,06,25,12,59,19.40
2016,06,25,13,00,19.40
2016,06,25,13,02,19.40
2016,06,25,13,03,19.30
2016,06,25,13,04,19.30
2016,06,25,13,05,19.20
2016,06,25,13,07,19.10
2016,06,25,13,08,19.00
2016,06,25,13,09,18.90
2016,06,25,13,10,18.90
2016,06,25,13,12,18.70
2016,06,25,13,13,18.70
2016,06,25,13,14,18.70
2016,06,25,13,15,18.70
2016,06,25,13,16,18.80
2016,06,25,13,17,18.70
2016,06,25,13,18,18.70
2016,06,25,13,19,18.80
2016,06,25,13,20,18.80
2016,06,25,13,21,18.80
2016,06,25,13,22,18.80
2016,06,25,13,23,18.80
2016,06,25,13,24,18.90
2016,06,25,13,25,18.90
2016,06,25,13,26,18.90
2016,06,25,13,27,18.90
2016,06,25,13,28,18.90
2016,06,25,13,29,18.90
2016,06,25,13,30,18.80
2016,06,25,13,31,18.80
2016,06,25,13,32,18.80
2016,06,25,13,34,18.70
2016,06,25,13,35,18.70
2016,06,25,13,36,18.70
2016,06,25,13,37,18.60
2016,06,25,13,39,18.50
2016,06,25,13,40,18.50
2016,06,25,13,41,18.50
2016,06,25,13,42,18.50
2016,06,25,13,43,18.50
2016,06,25,13,44,18.60
2016,06,25,13,45,18.60
2016,06,25,13,46,18.70
2016,06,25,13,47,18.70
2016,06,25,13,48,18.80
2016,06,25,13,49,18.80
2016,06,25,13,50,18.80
2016,06,25,13,51,18.90
2016,06,25,13,52,18.90
2016,06,25,13,53,19.00
2016,06,25,13,54,19.00
2016,06,25,13,55,19.00
2016,06,25,14,01,19.10
2016,06,25,14,02,19.00
2016,06,25,14,03,19.00
2016,06,25,14,04,18.90
2016,06,25,14,05,18.90
2016,06,25,14,06,18.80
2016,06,25,14,07,18.80
2016,06,25,14,08,18.80
2016,06,25,14,09,18.80
2016,06,25,14,11,18.90
2016,06,25,14,12,18.90
2016,06,25,14,13,18.90
2016,06,25,14,14,18.80
2016,06,25,14,16,18.80
2016,06,25,14,17,18.70
2016,06,25,14,18,18.70
2016,06,25,14,19,18.60
2016,06,25,14,20,18.50
2016,06,25,14,21,18.40
2016,06,25,14,22,18.40
2016,06,25,14,23,18.30
2016,06,25,14,24,18.20
2016,06,25,14,25,18.10
2016,06,25,14,26,18.00
2016,06,25,14,27,17.90
2016,06,25,14,28,17.80
2016,06,25,14,29,17.80
2016,06,25,14,30,17.80
2016,06,25,14,31,17.70
2016,06,25,14,32,17.70
2016,06,25,14,33,17.70
2016,06,25,14,34,17.70
2016,06,25,14,35,17.70
2016,06,25,14,36,17.60
2016,06,25,14,37,17.60
2016,06,25,14,38,17.60
2016,06,25,14,39,17.60
2016,06,25,14,40,17.70
2016,06,25,14,41,17.80
2016,06,25,14,42,17.80
2016,06,25,14,43,17.80
2016,06,25,14,44,17.80
2016,06,25,14,45,17.90
2016,06,25,14,46,17.90
2016,06,25,14,47,18.00
2016,06,25,14,48,18.10
2016,06,25,14,49,18.20
2016,06,25,14,50,18.20
2016,06,25,14,51,18.20
2016,06,25,14,52,18.10
2016,06,25,14,53,18.20
2016,06,25,14,54,18.20
2016,06,25,14,55,18.20
2016,06,25,14,56,18.20
2016,06,25,14,57,18.30
2016,06,25,14,58,18.30
2016,06,25,14,59,18.20
2016,06,25,15,00,18.20
2016,06,25,15,01,18.20
2016,06,25,15,02,18.10
2016,06,25,15,03,18.20
2016,06,25,15,04,18.30
2016,06,25,15,05,18.30
2016,06,25,15,06,18.20
2016,06,25,15,07,18.20
2016,06,25,15,08,18.20
2016,06,25,15,09,18.20
2016,06,25,15,10,18.20
2016,06,25,15,11,18.30
2016,06,25,15,12,18.40
2016,06,25,15,13,18.50
2016,06,25,15,14,18.60
2016,06,25,15,15,18.60
2016,06,25,15,16,18.70
2016,06,25,15,17,18.80
2016,06,25,15,18,18.90
2016,06,25,15,19,19.00
2016,06,25,15,20,19.00
2016,06,25,15,21,19.10
2016,06,25,15,22,19.20
2016,06,25,15,23,19.30
2016,06,25,15,24,19.40
2016,06,25,15,25,19.40
2016,06,25,15,26,19.60
2016,06,25,15,27,19.70
2016,06,25,15,28,19.70
2016,06,25,15,29,19.80
2016,06,25,15,30,19.80
2016,06,25,15,31,19.90
2016,06,25,15,32,20.00
2016,06,25,15,33,20.20
2016,06,25,15,34,20.30
2016,06,25,15,35,20.30
2016,06,25,15,36,20.50
2016,06,25,15,37,20.50
2016,06,25,15,38,20.50
2016,06,25,15,39,20.60
2016,06,25,15,40,20.60
2016,06,25,15,41,20.60
2016,06,25,15,42,20.60
2016,06,25,15,43,20.70
2016,06,25,15,44,20.70
2016,06,25,15,45,20.70
2016,06,25,15,46,20.70
2016,06,25,15,47,20.60
2016,06,25,15,48,20.50
2016,06,25,15,49,20.40
2016,06,25,15,50,20.30
2016,06,25,15,51,20.20
2016,06,25,15,52,20.10
2016,06,25,15,53,20.00
2016,06,25,15,54,20.00
2016,06,25,15,55,19.90
2016,06,25,15,56,19.90
2016,06,25,15,57,19.90
2016,06,25,15,58,19.90
2016,06,25,15,59,19.80
2016,06,25,16,00,19.80
2016,06,25,16,01,19.90
2016,06,25,16,02,19.90
2016,06,25,16,03,19.90
2016,06,25,16,04,20.00
2016,06,25,16,05,20.00
2016,06,25,16,06,20.10
2016,06,25,16,07,20.20
2016,06,25,16,08,20.30
2016,06,25,16,09,20.30
2016,06,25,16,10,20.40
2016,06,25,16,11,20.50
2016,06,25,16,12,20.50
2016,06,25,16,13,20.60
2016,06,25,16,14,20.60
2016,06,25,16,15,20.60
2016,06,25,16,16,20.50
2016,06,25,16,17,20.50
2016,06,25,16,18,20.40
2016,06,25,16,19,20.40
2016,06,25,16,20,20.40
2016,06,25,16,21,20.40
2016,06,25,16,22,20.50
2016,06,25,16,23,20.40
2016,06,25,16,24,20.40
2016,06,25,16,25,20.40
2016,06,25,16,26,20.40
2016,06,25,16,27,20.50
2016,06,25,16,28,20.60
2016,06,25,16,29,20.60
2016,06,25,16,30,20.70
2016,06,25,16,31,20.60
2016,06,25,16,32,20.60
2016,06,25,16,34,20.50
2016,06,25,16,35,20.50
2016,06,25,16,36,20.20
2016,06,25,16,38,20.00
2016,06,25,16,39,20.00
2016,06,25,16,40,20.10
2016,06,25,16,41,20.00
2016,06,25,16,43,19.90
2016,06,25,16,44,19.90
2016,06,25,16,45,19.90
2016,06,25,16,46,19.90
2016,06,25,16,47,19.90
2016,06,25,16,48,20.00
2016,06,25,16,50,20.00
2016,06,25,16,51,20.10
2016,06,25,16,52,20.10
2016,06,25,16,53,20.20
2016,06,25,16,54,20.20
2016,06,25,16,55,20.30
2016,06,25,16,57,20.40
2016,06,25,16,58,20.50
2016,06,25,16,59,20.50
2016,06,25,17,00,20.50
2016,06,25,17,02,20.50
2016,06,25,17,03,20.60
2016,06,25,17,04,20.60
2016,06,25,17,05,20.50
2016,06,25,17,06,20.50
2016,06,25,17,07,20.50
2016,06,25,17,09,20.50
2016,06,25,17,10,20.50
2016,06,25,17,11,20.40
2016,06,25,17,12,20.40
2016,06,25,17,14,20.50
2016,06,25,17,15,20.50
2016,06,25,17,16,20.50
2016,06,25,17,17,20.60
2016,06,25,17,19,20.60
2016,06,25,17,20,20.60
2016,06,25,17,21,20.60
2016,06,25,17,22,20.70
2016,06,25,17,24,20.60
2016,06,25,17,26,20.60
2016,06,25,17,27,20.60
2016,06,25,17,29,20.50
2016,06,25,17,31,20.50
2016,06,25,17,32,20.60
2016,06,25,17,33,20.60
2016,06,25,17,34,20.60
2016,06,25,17,35,20.60
2016,06,25,17,36,20.60
2016,06,25,17,38,20.60
2016,06,25,17,39,20.50
2016,06,25,17,40,20.50
2016,06,25,17,41,20.50
2016,06,25,17,43,20.50
2016,06,25,17,44,20.50
2016,06,25,17,45,20.60
2016,06,25,17,46,20.50
2016,06,25,17,48,20.60
2016,06,25,17,50,20.60
2016,06,25,17,51,20.60
2016,06,25,17,52,20.60
2016,06,25,17,53,20.70
2016,06,25,17,55,20.70
2016,06,25,17,57,20.70
2016,06,25,17,58,20.70
2016,06,25,17,59,20.80
2016,06,25,18,00,20.80
2016,06,25,18,02,20.70
2016,06,25,18,03,20.70
2016,06,25,18,04,20.70
2016,06,25,18,05,20.70
2016,06,25,18,07,20.70
2016,06,25,18,08,20.70
2016,06,25,18,09,20.70
2016,06,25,18,10,20.70
2016,06,25,18,12,20.80
2016,06,25,18,13,20.80
2016,06,25,18,14,20.80
2016,06,25,18,15,20.80
2016,06,25,18,17,20.90
2016,06,25,18,18,21.10
2016,06,25,18,19,21.10
2016,06,25,18,20,21.10
2016,06,25,18,21,21.10
2016,06,25,18,22,21.10
2016,06,25,18,24,20.90
2016,06,25,18,25,20.80
2016,06,25,18,26,20.80
2016,06,25,18,27,20.80
2016,06,25,18,29,20.70
2016,06,25,18,30,20.60
2016,06,25,18,31,20.60
2016,06,25,18,32,20.50
2016,06,25,18,34,20.40
2016,06,25,18,35,20.40
2016,06,25,18,36,20.40
2016,06,25,18,37,20.30
2016,06,25,18,38,20.30
2016,06,25,18,39,20.20
2016,06,25,18,41,20.20
2016,06,25,18,42,20.10
2016,06,25,18,43,20.00
2016,06,25,18,44,20.00
2016,06,25,18,45,20.00
2016,06,25,18,46,19.90
2016,06,25,18,47,19.90
2016,06,25,18,48,19.80
2016,06,25,18,49,19.80
2016,06,25,18,50,19.80
2016,06,25,18,51,19.80
2016,06,25,18,52,19.70
2016,06,25,18,53,19.70
2016,06,25,18,54,19.70
2016,06,25,18,55,19.70
2016,06,25,18,56,19.70
2016,06,25,18,57,19.70
2016,06,25,18,58,19.70
2016,06,25,18,59,19.70
2016,06,25,19,00,19.70
2016,06,25,19,01,19.70
2016,06,25,19,02,19.70
2016,06,25,19,03,19.70
2016,06,25,19,04,19.70
2016,06,25,19,05,19.70
2016,06,25,19,06,19.70
2016,06,25,19,07,19.70
2016,06,25,19,08,19.70
2016,06,25,19,09,19.70
2016,06,25,19,10,19.60